| time (UTC) | temp C | wind direction | speed KPH | gust KPH | rain 1hr cm | rain 24hr cm | rain mn cm | humidity % | barometer mb |
| 20260503004003 | 17 | 229 | 6.4 | 22.5 | 0.00 | 0.00 | 0.00 | 38 | 1010.5 |
| 20260503003503 | 17 | 254 | 11.3 | 24.1 | 0.00 | 0.00 | 0.00 | 37 | 1010.6 |
| 20260503003005 | 17 | 257 | 11.3 | 24.1 | 0.00 | 0.00 | 0.00 | 37 | 1010.5 |
| 20260503002603 | 17 | 216 | 6.4 | 16.1 | 0.00 | 0.00 | 0.00 | 36 | 1010.5 |
| 20260503002005 | 17 | 241 | 4.8 | 17.7 | 0.00 | 0.00 | 0.00 | 36 | 1010.5 |
| 20260503001503 | 17 | 236 | 6.4 | 17.7 | 0.00 | 0.00 | 0.00 | 36 | 1010.4 |
| 20260503001002 | 17 | 219 | 1.6 | 16.1 | 0.00 | 0.00 | 0.00 | 36 | 1010.5 |
| 20260503000502 | 17 | 207 | 6.4 | 16.1 | 0.00 | 0.00 | 0.00 | 36 | 1010.6 |
| 20260503000002 | 17 | 181 | 3.2 | 8.0 | 0.00 | 0.00 | 0.00 | 36 | 1010.6 |
| 20260502235502 | 17 | 179 | 1.6 | 8.0 | 0.00 | 0.00 | 0.00 | 36 | 1010.6 |
| 20260502235001 | 17 | 179 | 0.0 | 12.9 | 0.00 | 0.00 | 0.00 | 36 | 1010.8 |
| 20260502234503 | 17 | 180 | 3.2 | 12.9 | 0.00 | 0.00 | 0.00 | 35 | 1010.8 |
| 20260502234002 | 17 | 229 | 0.0 | 3.2 | 0.00 | 0.00 | 0.00 | 36 | 1010.7 |
| 20260502233600 | 17 | 229 | 0.0 | 9.7 | 0.00 | 0.00 | 0.00 | 35 | 1010.8 |
| 20260502233100 | 17 | 229 | 0.0 | 9.7 | 0.00 | 0.00 | 0.00 | 37 | 1010.8 |
| 20260502232601 | 17 | 142 | 3.2 | 6.4 | 0.00 | 0.00 | 0.00 | 36 | 1011.0 |
| 20260502231611 | 17 | 240 | 0.0 | 11.3 | 0.00 | 0.00 | 0.00 | 36 | 1011.1 |
| 20260502231059 | 17 | 240 | 1.6 | 11.3 | 0.00 | 0.00 | 0.00 | 36 | 1011.3 |
| 20260502230601 | 17 | 242 | 3.2 | 14.5 | 0.00 | 0.00 | 0.00 | 35 | 1011.4 |
| 20260502230059 | 17 | 238 | 3.2 | 12.9 | 0.00 | 0.00 | 0.00 | 36 | 1011.3 |
| 20260502225558 | 17 | 220 | 4.8 | 16.1 | 0.00 | 0.00 | 0.00 | 35 | 1011.3 |
| 20260502225058 | 17 | 230 | 6.4 | 19.3 | 0.00 | 0.00 | 0.00 | 35 | 1011.3 |
| 20260502224600 | 17 | 242 | 6.4 | 16.1 | 0.00 | 0.00 | 0.00 | 34 | 1011.4 |
| 20260502224058 | 17 | 268 | 6.4 | 20.9 | 0.00 | 0.00 | 0.00 | 34 | 1011.3 |
| 20260502223559 | 17 | 240 | 6.4 | 20.9 | 0.00 | 0.00 | 0.00 | 34 | 1011.4 |
| 20260502223057 | 17 | 228 | 8.0 | 19.3 | 0.00 | 0.00 | 0.00 | 33 | 1011.5 |
| 20260502222557 | 17 | 224 | 8.0 | 17.7 | 0.00 | 0.00 | 0.00 | 33 | 1011.6 |
| 20260502221555 | 17 | 231 | 8.0 | 17.7 | 0.00 | 0.00 | 0.00 | 34 | 1011.7 |
| 20260502221055 | 17 | 249 | 3.2 | 12.9 | 0.00 | 0.00 | 0.00 | 34 | 1011.7 |
| 20260502220554 | 17 | 237 | 3.2 | 20.9 | 0.00 | 0.00 | 0.00 | 33 | 1011.8 |
| 20260502220054 | 17 | 256 | 9.7 | 24.1 | 0.00 | 0.00 | 0.00 | 32 | 1011.8 |
| 20260502215553 | 17 | 267 | 11.3 | 24.1 | 0.00 | 0.00 | 0.00 | 32 | 1011.9 |
| 20260502215053 | 18 | 264 | 8.0 | 19.3 | 0.00 | 0.00 | 0.00 | 32 | 1012.1 |
| 20260502214551 | 18 | 234 | 3.2 | 16.1 | 0.00 | 0.00 | 0.00 | 34 | 1012.1 |
| 20260502214051 | 18 | 232 | 4.8 | 19.3 | 0.00 | 0.00 | 0.00 | 32 | 1012.1 |
| 20260502213550 | 18 | 255 | 6.4 | 19.3 | 0.00 | 0.00 | 0.00 | 31 | 1012.3 |
| 20260502213100 | 18 | 232 | 8.0 | 20.9 | 0.00 | 0.00 | 0.00 | 32 | 1012.3 |
| 20260502212552 | 18 | 251 | 4.8 | 22.5 | 0.00 | 0.00 | 0.00 | 32 | 1012.4 |
| 20260502211549 | 18 | 232 | 4.8 | 19.3 | 0.00 | 0.00 | 0.00 | 32 | 1012.6 |
| 20260502211047 | 18 | 232 | 8.0 | 16.1 | 0.00 | 0.00 | 0.00 | 32 | 1012.7 |
| 20260502210546 | 17 | 232 | 4.8 | 22.5 | 0.00 | 0.00 | 0.00 | 32 | 1012.8 |
| 20260502210045 | 17 | 253 | 11.3 | 22.5 | 0.00 | 0.00 | 0.00 | 33 | 1012.9 |
| 20260502205545 | 17 | 261 | 6.4 | 20.9 | 0.00 | 0.00 | 0.00 | 33 | 1013.0 |
| 20260502205044 | 17 | 247 | 9.7 | 20.9 | 0.00 | 0.00 | 0.00 | 32 | 1013.1 |
| 20260502204544 | 17 | 232 | 8.0 | 24.1 | 0.00 | 0.00 | 0.00 | 34 | 1013.2 |
| 20260502204043 | 17 | 270 | 9.7 | 20.9 | 0.00 | 0.00 | 0.00 | 32 | 1013.3 |
| 20260502203543 | 17 | 194 | 8.0 | 19.3 | 0.00 | 0.00 | 0.00 | 33 | 1013.4 |
| 20260502203042 | 17 | 275 | 3.2 | 24.1 | 0.00 | 0.00 | 0.00 | 33 | 1013.4 |
| 20260502202542 | 17 | 261 | 9.7 | 24.1 | 0.00 | 0.00 | 0.00 | 33 | 1013.5 |
| 20260502201545 | 16 | 231 | 12.9 | 20.9 | 0.00 | 0.00 | 0.00 | 34 | 1013.8 |
| 20260502201038 | 16 | 215 | 6.4 | 24.1 | 0.00 | 0.00 | 0.00 | 35 | 1013.9 |
| 20260502200538 | 16 | 252 | 8.0 | 24.1 | 0.00 | 0.00 | 0.00 | 33 | 1014.0 |
| 20260502200036 | 16 | 242 | 11.3 | 20.9 | 0.00 | 0.00 | 0.00 | 33 | 1014.1 |
| 20260502195536 | 16 | 238 | 4.8 | 20.9 | 0.00 | 0.00 | 0.00 | 34 | 1014.3 |
| 20260502195035 | 16 | 223 | 4.8 | 20.9 | 0.00 | 0.00 | 0.00 | 33 | 1014.4 |
| 20260502194534 | 16 | 259 | 4.8 | 20.9 | 0.00 | 0.00 | 0.00 | 33 | 1014.4 |
| 20260502194034 | 16 | 237 | 9.7 | 17.7 | 0.00 | 0.00 | 0.00 | 33 | 1014.5 |
| 20260502193534 | 16 | 245 | 4.8 | 20.9 | 0.00 | 0.00 | 0.00 | 33 | 1014.6 |
| 20260502193032 | 16 | 244 | 9.7 | 22.5 | 0.00 | 0.00 | 0.00 | 32 | 1014.7 |
| 20260502192533 | 16 | 236 | 9.7 | 22.5 | 0.00 | 0.00 | 0.00 | 34 | 1014.7 |
| 20260502191530 | 16 | 269 | 11.3 | 24.1 | 0.00 | 0.00 | 0.00 | 34 | 1014.9 |
| 20260502191030 | 15 | 236 | 8.0 | 19.3 | 0.00 | 0.00 | 0.00 | 33 | 1015.1 |
| 20260502190528 | 15 | 232 | 9.7 | 17.7 | 0.00 | 0.00 | 0.00 | 34 | 1015.1 |
| 20260502190027 | 15 | 254 | 6.4 | 24.1 | 0.00 | 0.00 | 0.00 | 34 | 1015.3 |
| 20260502185527 | 15 | 275 | 6.4 | 16.1 | 0.00 | 0.00 | 0.00 | 33 | 1015.2 |
| 20260502185026 | 15 | 225 | 4.8 | 19.3 | 0.00 | 0.00 | 0.00 | 36 | 1015.3 |
| 20260502184526 | 15 | 259 | 9.7 | 20.9 | 0.00 | 0.00 | 0.00 | 34 | 1015.6 |
| 20260502184025 | 15 | 268 | 8.0 | 24.1 | 0.00 | 0.00 | 0.00 | 34 | 1015.6 |
| 20260502183525 | 15 | 265 | 11.3 | 24.1 | 0.00 | 0.00 | 0.00 | 34 | 1015.8 |
| 20260502183024 | 15 | 229 | 8.0 | 22.5 | 0.00 | 0.00 | 0.00 | 35 | 1015.8 |
| 20260502182526 | 15 | 242 | 6.4 | 22.5 | 0.00 | 0.00 | 0.00 | 35 | 1015.8 |
| 20260502181525 | 15 | 249 | 12.9 | 24.1 | 0.00 | 0.00 | 0.00 | 35 | 1016.0 |
| 20260502181022 | 15 | 196 | 8.0 | 19.3 | 0.00 | 0.00 | 0.00 | 35 | 1016.0 |
| 20260502180520 | 15 | 213 | 4.8 | 24.1 | 0.00 | 0.00 | 0.00 | 36 | 1016.2 |
| 20260502170508 | 13 | 271 | 9.7 | 22.5 | 0.00 | 0.00 | 0.00 | 37 | 1017.0 |
| 20260502164003 | 13 | 278 | 6.4 | 19.3 | 0.00 | 0.00 | 0.00 | 37 | 1017.5 |
| 20260502163503 | 12 | 232 | 4.8 | 19.3 | 0.00 | 0.00 | 0.00 | 37 | 1017.5 |
| 20260502163100 | 12 | 291 | 6.4 | 25.7 | 0.00 | 0.00 | 0.00 | 38 | 1017.6 |
| 20260502162600 | 12 | 275 | 11.3 | 25.7 | 0.00 | 0.00 | 0.00 | 37 | 1017.6 |
| 20260502161601 | 12 | 274 | 9.7 | 24.1 | 0.00 | 0.00 | 0.00 | 39 | 1017.7 |
| 20260502161059 | 12 | 234 | 8.0 | 24.1 | 0.00 | 0.00 | 0.00 | 38 | 1017.7 |
| 20260502160558 | 12 | 257 | 11.3 | 24.1 | 0.00 | 0.00 | 0.00 | 39 | 1017.8 |
| 20260502151551 | 11 | 250 | 6.4 | 14.5 | 0.00 | 0.00 | 0.00 | 43 | 1018.2 |
| 20260502151048 | 11 | 251 | 6.4 | 12.9 | 0.00 | 0.00 | 0.00 | 43 | 1018.2 |
| 20260502150546 | 11 | 269 | 6.4 | 14.5 | 0.00 | 0.00 | 0.00 | 44 | 1018.3 |
| 20260502130521 | 6 | 259 | 3.2 | 11.3 | 0.00 | 0.00 | 0.00 | 63 | 1018.8 |
| 20260502123512 | 5 | 294 | 1.6 | 6.4 | 0.00 | 0.00 | 0.00 | 65 | 1018.7 |
| 20260502123011 | 5 | 303 | 0.0 | 4.8 | 0.00 | 0.00 | 0.00 | 65 | 1018.8 |
| 20260502122508 | 5 | 303 | 1.6 | 4.8 | 0.00 | 0.00 | 0.00 | 65 | 1018.8 |
| 20260502121520 | 4 | 303 | 0.0 | 4.8 | 0.00 | 0.00 | 0.00 | 66 | 1018.9 |
| 20260502121005 | 4 | 303 | 0.0 | 3.2 | 0.00 | 0.00 | 0.00 | 65 | 1018.8 |
| 20260502120504 | 4 | 303 | 0.0 | 4.8 | 0.00 | 0.00 | 0.00 | 66 | 1018.8 |
| 20260502115601 | 3 | 303 | 0.0 | 3.2 | 0.00 | 0.00 | 0.00 | 67 | 1018.8 |
| 20260502115104 | 3 | 303 | 0.0 | 3.2 | 0.00 | 0.00 | 0.00 | 68 | 1018.7 |
| 20260502114559 | 3 | 303 | 0.0 | 3.2 | 0.00 | 0.00 | 0.00 | 69 | 1018.7 |
| 20260502114058 | 3 | 304 | 0.0 | 1.6 | 0.00 | 0.00 | 0.00 | 70 | 1018.7 |
| 20260502113602 | 3 | 303 | 0.0 | 1.6 | 0.00 | 0.00 | 0.00 | 71 | 1018.6 |
| 20260502113058 | 2 | 303 | 0.0 | 1.6 | 0.00 | 0.00 | 0.00 | 72 | 1018.5 |
| 20260502112557 | 2 | 303 | 0.0 | 0.0 | 0.00 | 0.00 | 0.00 | 72 | 1018.6 |
| 20260502111618 | 2 | 303 | 0.0 | 0.0 | 0.00 | 0.00 | 0.00 | 72 | 1018.6 |
| 20260502111102 | 2 | 303 | 0.0 | 0.0 | 0.00 | 0.00 | 0.00 | 71 | 1018.5 |
| 20260502110558 | 2 | 303 | 0.0 | 0.0 | 0.00 | 0.00 | 0.00 | 71 | 1018.5 |
| 20260502110058 | 2 | 303 | 0.0 | 0.0 | 0.00 | 0.00 | 0.00 | 71 | 1018.5 |
| 20260502105600 | 2 | 303 | 0.0 | 0.0 | 0.00 | 0.00 | 0.00 | 71 | 1018.5 |
| 20260502105057 | 2 | 304 | 0.0 | 0.0 | 0.00 | 0.00 | 0.00 | 71 | 1018.5 |
| 20260502104556 | 2 | 303 | 0.0 | 0.0 | 0.00 | 0.00 | 0.00 | 71 | 1018.5 |
| 20260502104056 | 2 | 303 | 0.0 | 0.0 | 0.00 | 0.00 | 0.00 | 71 | 1018.4 |
| 20260502103556 | 2 | 303 | 0.0 | 0.0 | 0.00 | 0.00 | 0.00 | 70 | 1018.4 |
| 20260502103108 | 2 | 303 | 0.0 | 0.0 | 0.00 | 0.00 | 0.00 | 70 | 1018.5 |
| 20260502102556 | 3 | 304 | 0.0 | 0.0 | 0.00 | 0.00 | 0.00 | 69 | 1018.5 |
| 20260502101609 | 3 | 303 | 0.0 | 1.6 | 0.00 | 0.00 | 0.00 | 68 | 1018.4 |
| 20260502101054 | 3 | 304 | 0.0 | 0.0 | 0.00 | 0.00 | 0.00 | 68 | 1018.4 |
| 20260502100553 | 3 | 303 | 0.0 | 0.0 | 0.00 | 0.00 | 0.00 | 67 | 1018.5 |
| 20260502091053 | 3 | 304 | 0.0 | 0.0 | 0.00 | 0.00 | 0.00 | 67 | 1018.4 |
| 20260502090556 | 3 | 304 | 0.0 | 4.8 | 0.00 | 0.00 | 0.00 | 67 | 1018.4 |
| 20260502071051 | 4 | 36 | 0.0 | 0.0 | 0.00 | 0.00 | 0.00 | 64 | 1018.6 |
| 20260502070551 | 5 | 36 | 0.0 | 0.0 | 0.00 | 0.00 | 0.00 | 64 | 1018.6 |
| 20260502070051 | 5 | 36 | 0.0 | 0.0 | 0.00 | 0.00 | 0.00 | 63 | 1018.7 |
| 20260502065551 | 5 | 36 | 0.0 | 0.0 | 0.00 | 0.00 | 0.00 | 62 | 1018.7 |
| 20260502065050 | 5 | 36 | 0.0 | 0.0 | 0.00 | 0.00 | 0.00 | 61 | 1018.8 |
| 20260502064551 | 5 | 36 | 0.0 | 0.0 | 0.00 | 0.00 | 0.00 | 61 | 1018.8 |
| 20260502064052 | 5 | 36 | 0.0 | 0.0 | 0.00 | 0.00 | 0.00 | 61 | 1018.9 |
| 20260502063550 | 5 | 36 | 0.0 | 1.6 | 0.00 | 0.00 | 0.00 | 60 | 1018.9 |
| 20260502063050 | 5 | 36 | 0.0 | 1.6 | 0.00 | 0.00 | 0.00 | 59 | 1018.9 |
| 20260502062551 | 5 | 36 | 0.0 | 0.0 | 0.00 | 0.00 | 0.00 | 59 | 1018.9 |
| 20260502061553 | 5 | 36 | 0.0 | 0.0 | 0.00 | 0.00 | 0.00 | 58 | 1018.9 |
| 20260502061051 | 5 | 36 | 0.0 | 0.0 | 0.00 | 0.00 | 0.00 | 57 | 1018.9 |
| 20260502060551 | 5 | 36 | 0.0 | 0.0 | 0.00 | 0.00 | 0.00 | 57 | 1018.9 |
| 20260502060051 | 5 | 36 | 0.0 | 0.0 | 0.00 | 0.00 | 0.00 | 56 | 1018.8 |
| 20260502055551 | 5 | 36 | 0.0 | 3.2 | 0.00 | 0.00 | 0.00 | 55 | 1018.8 |
| 20260502055051 | 5 | 36 | 0.0 | 3.2 | 0.00 | 0.00 | 0.00 | 55 | 1018.9 |
| 20260502054558 | 5 | 36 | 0.0 | 3.2 | 0.00 | 0.00 | 0.00 | 55 | 1018.9 |
| 20260502054053 | 5 | 36 | 0.0 | 3.2 | 0.00 | 0.00 | 0.00 | 55 | 1018.9 |
| 20260502053550 | 5 | 36 | 0.0 | 3.2 | 0.00 | 0.00 | 0.00 | 54 | 1018.9 |
| 20260502053054 | 5 | 36 | 0.0 | 0.0 | 0.00 | 0.00 | 0.00 | 54 | 1018.9 |
| 20260502052550 | 5 | 36 | 0.0 | 0.0 | 0.00 | 0.00 | 0.00 | 54 | 1018.9 |
| 20260502051549 | 5 | 36 | 0.0 | 0.0 | 0.00 | 0.00 | 0.00 | 53 | 1018.8 |
| 20260502051050 | 6 | 36 | 0.0 | 0.0 | 0.00 | 0.00 | 0.00 | 52 | 1018.8 |
| 20260502050549 | 6 | 36 | 0.0 | 1.6 | 0.00 | 0.00 | 0.00 | 52 | 1018.9 |
| 20260502050049 | 6 | 36 | 0.0 | 1.6 | 0.00 | 0.00 | 0.00 | 51 | 1018.7 |
| 20260502045552 | 6 | 36 | 0.0 | 0.0 | 0.00 | 0.00 | 0.00 | 52 | 1018.8 |
| 20260502045049 | 6 | 36 | 0.0 | 0.0 | 0.00 | 0.00 | 0.00 | 52 | 1018.7 |
| 20260502044550 | 6 | 36 | 0.0 | 0.0 | 0.00 | 0.00 | 0.00 | 50 | 1018.7 |
| 20260502044049 | 6 | 36 | 0.0 | 0.0 | 0.00 | 0.00 | 0.00 | 50 | 1018.7 |
| 20260502043550 | 6 | 36 | 0.0 | 0.0 | 0.00 | 0.00 | 0.00 | 50 | 1018.7 |
| 20260502043051 | 6 | 36 | 0.0 | 0.0 | 0.00 | 0.00 | 0.00 | 50 | 1018.7 |
| 20260502042551 | 6 | 36 | 0.0 | 0.0 | 0.00 | 0.00 | 0.00 | 49 | 1018.8 |
| 20260502041550 | 6 | 36 | 0.0 | 0.0 | 0.00 | 0.00 | 0.00 | 49 | 1018.7 |
| 20260502041049 | 6 | 36 | 0.0 | 0.0 | 0.00 | 0.00 | 0.00 | 49 | 1018.7 |
| 20260502040549 | 6 | 36 | 0.0 | 0.0 | 0.00 | 0.00 | 0.00 | 49 | 1018.8 |
| 20260502040049 | 6 | 36 | 0.0 | 0.0 | 0.00 | 0.00 | 0.00 | 48 | 1018.8 |
| 20260502035551 | 7 | 36 | 0.0 | 0.0 | 0.00 | 0.00 | 0.00 | 48 | 1018.9 |
| 20260502035049 | 7 | 36 | 0.0 | 0.0 | 0.00 | 0.00 | 0.00 | 48 | 1018.8 |
| 20260502034549 | 7 | 36 | 0.0 | 0.0 | 0.00 | 0.00 | 0.00 | 47 | 1018.9 |
| 20260502034049 | 7 | 36 | 0.0 | 0.0 | 0.00 | 0.00 | 0.00 | 46 | 1018.9 |
| 20260502033549 | 7 | 36 | 0.0 | 1.6 | 0.00 | 0.00 | 0.00 | 46 | 1018.9 |
| 20260502033049 | 7 | 36 | 0.0 | 3.2 | 0.00 | 0.00 | 0.00 | 45 | 1018.9 |
| 20260502032549 | 7 | 36 | 0.0 | 3.2 | 0.00 | 0.00 | 0.00 | 45 | 1018.9 |
| 20260502031549 | 7 | 36 | 0.0 | 0.0 | 0.00 | 0.00 | 0.00 | 44 | 1018.9 |
| 20260502031049 | 7 | 36 | 0.0 | 0.0 | 0.00 | 0.00 | 0.00 | 44 | 1018.9 |
| 20260502030549 | 7 | 36 | 0.0 | 0.0 | 0.00 | 0.00 | 0.00 | 44 | 1018.9 |
| 20260502030054 | 7 | 36 | 0.0 | 0.0 | 0.00 | 0.00 | 0.00 | 44 | 1018.9 |
| 20260502025549 | 7 | 36 | 0.0 | 0.0 | 0.00 | 0.00 | 0.00 | 43 | 1018.9 |
| 20260502025051 | 7 | 36 | 0.0 | 0.0 | 0.00 | 0.00 | 0.00 | 43 | 1018.8 |
| 20260502024552 | 7 | 36 | 0.0 | 0.0 | 0.00 | 0.00 | 0.00 | 43 | 1018.8 |
| 20260502024048 | 7 | 36 | 0.0 | 0.0 | 0.00 | 0.00 | 0.00 | 42 | 1018.8 |
| 20260502023552 | 7 | 36 | 0.0 | 0.0 | 0.00 | 0.00 | 0.00 | 42 | 1018.8 |
| 20260502023052 | 7 | 36 | 0.0 | 0.0 | 0.00 | 0.00 | 0.00 | 41 | 1018.8 |
| 20260502022550 | 7 | 36 | 0.0 | 0.0 | 0.00 | 0.00 | 0.00 | 41 | 1018.8 |
| 20260502021548 | 8 | 36 | 0.0 | 0.0 | 0.00 | 0.00 | 0.00 | 41 | 1018.7 |
| 20260502021048 | 8 | 36 | 0.0 | 0.0 | 0.00 | 0.00 | 0.00 | 40 | 1018.7 |
| 20260502020547 | 8 | 36 | 0.0 | 0.0 | 0.00 | 0.00 | 0.00 | 41 | 1018.7 |
| 20260502020047 | 8 | 36 | 0.0 | 0.0 | 0.00 | 0.00 | 0.00 | 40 | 1018.6 |
| 20260502015547 | 8 | 36 | 0.0 | 0.0 | 0.00 | 0.00 | 0.00 | 39 | 1018.6 |
| 20260502015048 | 8 | 36 | 0.0 | 0.0 | 0.00 | 0.00 | 0.00 | 40 | 1018.6 |
| 20260502014549 | 8 | 36 | 0.0 | 0.0 | 0.00 | 0.00 | 0.00 | 40 | 1018.5 |
| 20260502014047 | 9 | 36 | 0.0 | 0.0 | 0.00 | 0.00 | 0.00 | 39 | 1018.4 |
| 20260502013547 | 9 | 36 | 0.0 | 0.0 | 0.00 | 0.00 | 0.00 | 38 | 1018.4 |
| 20260502013050 | 10 | 36 | 0.0 | 0.0 | 0.00 | 0.00 | 0.00 | 38 | 1018.3 |
| 20260502012547 | 10 | 36 | 0.0 | 0.0 | 0.00 | 0.00 | 0.00 | 38 | 1018.3 |
| 20260502011548 | 10 | 36 | 0.0 | 0.0 | 0.00 | 0.00 | 0.00 | 38 | 1018.2 |
| 20260502011047 | 10 | 36 | 0.0 | 0.0 | 0.00 | 0.00 | 0.00 | 39 | 1018.2 |
| 20260502010547 | 10 | 36 | 0.0 | 0.0 | 0.00 | 0.00 | 0.00 | 39 | 1018.2 |
| 20260502010052 | 10 | 36 | 0.0 | 0.0 | 0.00 | 0.00 | 0.00 | 38 | 1018.2 |
| 20260502005547 | 10 | 36 | 0.0 | 0.0 | 0.00 | 0.00 | 0.00 | 37 | 1018.2 |
| 20260502005047 | 10 | 36 | 0.0 | 0.0 | 0.00 | 0.00 | 0.00 | 36 | 1018.2 |
| 20260502004603 | 10 | 36 | 0.0 | 0.0 | 0.00 | 0.00 | 0.00 | 37 | 1018.3 |